Regional Weather Roundup
Issued by NWS

Home | Current Version | Previous Version | Text Only | Print | Product List | Glossary Off
Versions: 1 2 3 4 5 6 7 8 9 10 11 12 13 14 15 16 17 18 19 20 21 22 23 24 25 26 27 28 29 30 31 32 33 34 35 36 37 38 39 40 41 42 43 44 45 46 47 48 49 50

198
ASUS43 KDMX 220806
RWRIA

WEATHER ROUNDUP FOR IOWA
NATIONAL WEATHER SERVICE DES MOINES IA
200 AM CST THU FEB 22 2018

NOTE: "FAIR" INDICATES FEW OR NO CLOUDS BELOW 12,000 FEET WITH NO
SIGNIFICANT WEATHER AND/OR OBSTRUCTIONS TO VISIBILITY.

* - THESE STATIONS ARE NOT NWS STATIONS...THUS NOT UNDER NWS
QUALITY CONTROL.  THEY ALSO DO NOT REPORT WEATHER SUCH
AS PRECIPITATION OR FOG.

IAZ001>003-012>014-020>022-031>034-043>046-220900-
   NORTHWEST IOWA

CITY           SKY/WX    TMP DP  RH WIND       PRES   REMARKS
CARROLL *      MOCLDY    23  18  80 NE6       30.51F WCI  16
CHEROKEE *     CLOUDY    20  16  83 SE7       30.53R WCI  11
DENISON *      LGT SNOW  21  19  93 NE5       30.52F WCI  15
LE MARS *      CLOUDY    18  12  79 CALM      30.53R
ORANGE CITY *  CLOUDY    18  16  93 CALM      30.50R
SHELDON *      CLOUDY    12  10  92 E6        30.49S WCI   3
SIOUX CITY     CLOUDY    20  13  74 SE8       30.53R WCI  10
SPENCER        MIX PCPN  15  11  83 E3        30.50F
STORM LAKE *   CLOUDY    19  16  86 SE8       30.51R WCI   9
$$

IAZ055>058-069>071-079>083-090>094-220900-
   SOUTHWEST IOWA

CITY           SKY/WX    TMP DP  RH WIND       PRES   REMARKS
ATLANTIC *     CLOUDY    23  18  80 E8        30.50F WCI  14
AUDUBON *      CLOUDY    23  18  80 CALM      30.51R
CLARINDA *     CLOUDY    27  21  80 NE9       30.51F WCI  17
COUNCIL BLFS * CLOUDY    23  21  93 E9        30.49F WCI  13
CRESTON *      MOCLDY    23  18  80 E7        30.52R WCI  15
HARLAN  *      CLOUDY    23  21  93 NE7       30.54F WCI  15
LAMONI         CLOUDY    24  19  81 NE10G17   30.46F WCI  14
RED OAK *      CLOUDY    25  19  80 NE9       30.51F WCI  15
SHENANDOAH *   FLURRIES  25  21  86 NE10G18   30.49F WCI  15
$$

IAZ047>049-059>061-072>074-084-220900-
   CENTRAL IOWA

CITY           SKY/WX    TMP DP  RH WIND       PRES   REMARKS
AMES           CLOUDY    24  16  71 E6        30.53F WCI  17
ANKENY *       CLOUDY    25  18  74 E6        30.54F WCI  18
BOONE *        CLOUDY    23  18  80 E14       30.50F WCI  11
CHARITON *     CLOUDY    23  19  86 E12       30.49F WCI  12
DES MOINES     FLURRIES  25  15  66 NE9       30.52F WCI  15
GRINNELL*      CLOUDY    24  18  78 E12       30.53S WCI  13
KNOXVILLE *    CLOUDY    25  18  74 E9        30.50F WCI  15
MARSHALLTOWN   CLOUDY    23  17  78 NE12      30.53R WCI  12
NEWTON *       CLOUDY    25  18  74 E8        30.54R WCI  16
PELLA *        MOCLDY    25  18  73 E5        30.54S WCI  20
PERRY *        CLOUDY    24  19  80 E6        30.54R WCI  17
$$

IAZ004>006-015-016-023>025-035-036-220900-
   NORTH CENTRAL IOWA

CITY           SKY/WX    TMP DP  RH WIND       PRES   REMARKS
ALGONA *       FAIR      21 N/A N/A E8G14     30.51F WCI  12
CLARION *      FOG       21  21 100 E13       30.53S VSB 1   WCI   9
ESTHERVILLE    CLOUDY    13   8  81 NE8       30.51F WCI   2
FORT DODGE *   LGT SNOW  21  18  86 E8        30.53S VSB 3/4 WCI  12
MASON CITY     CLOUDY    21  15  78 E7        30.56S WCI  12
FOREST CITY *  CLOUDY    23  19  86 E5        30.54S WCI  17
WEBSTER CITY * LGT SNOW  23  18  80 E12       30.52S WCI  12
IOWA FALLS *   CLOUDY    24  18  77 E10       30.55R WCI  13
$$

IAZ007>011-017>019-026>030-037>042-050>054-066-220900-
   NORTHEAST IOWA

CITY           SKY/WX    TMP DP  RH WIND       PRES   REMARKS
CEDAR RAPIDS   CLOUDY    26  16  65 E12       30.53S WCI  16
CHARLES CITY * CLOUDY    23  18  80 E9        30.55F WCI  13
CLINTON *      FAIR      25  19  78 NE13      30.56F WCI  14
DECORAH *      CLOUDY    21  16  79 NE6       30.54F WCI  14
DUBUQUE        FAIR      23  12  62 E12       30.54F WCI  12
MONTICELLO *   CLOUDY    25  16  68 E9        30.56S WCI  15
OELWEIN *      CLOUDY    23  19  86 E12       30.55S WCI  12
WATERLOO       CLOUDY    23  16  74 E10       30.56S WCI  12
$$

IAZ064-065-067-068-078-220900-
   EAST CENTRAL IOWA

CITY           SKY/WX    TMP DP  RH WIND       PRES   REMARKS
DAVENPORT      FAIR      27  18  69 NE15      30.54F WCI  15
IOWA CITY      CLOUDY    27  17  66 NE7       30.56S WCI  19
MT. PLEASANT * CLOUDY    28  21  74 NE12      30.51F WCI  18
MUSCATINE *    CLOUDY    28  19  69 NE13      30.55F WCI  18
QUAD CITIES    FAIR      27  19  72 NE12      30.53F WCI  17
$$

IAZ062-063-075>077-085>089-095>099-220900-
   SOUTHEAST IOWA

CITY           SKY/WX    TMP DP  RH WIND       PRES   REMARKS
BURLINGTON     CLOUDY    28  21  75 NE13      30.49F WCI  17
FAIRFIELD *    CLOUDY    27  19  74 NE12      30.51F WCI  16
FORT MADISON * CLOUDY    28  23  80 NE12      30.48F WCI  18
KEOKUK *       CLOUDY    28  23  80 NE9G16    30.47F WCI  20
OSKALOOSA *    CLOUDY    26  20  80 E9        30.52F WCI  16
OTTUMWA        CLOUDY    27  18  69 NE13      30.50F WCI  16
WASHINGTON *   CLOUDY    27  23  86 NE12      30.53F WCI  16
$$

ABBREVIATIONS USED IN REMARKS
   TC - TEMPERATURES IN CELSIUS
  WCI - WIND CHILL INDEX
   HX - HEAT INDEX
  VSB - VISIBILITY
$$





USA.gov is the U.S. government's official web portal to all federal, state and local government web resources and services.